Terminal Aerodrome Forecast
Issued by NWS

Home | Current Version | Previous Version | Graphics & Text | Print | Product List | Glossary On
Versions: 1 2 3 4 5 6 7 8 9 10 11 12 13
599
FTUS43 KTOP 051120
TAFMHK
TAF
KMHK 051120Z 0512/0612 01006KT P6SM SKC
     FM052300 12002KT P6SM SKC=

USA.gov is the U.S. government's official web portal to all federal, state and local government web resources and services.